Aérodrome :
LOGIN :

S'inscrire | Disclaimer

   EN    FR    IT 

 










Légende :    VFR   VFR Marginal   IFR   IFR Intensif   IFR Très Intensif
Visi : 
Plafond : 
>= 8 km
>= 3000ft
5 à 8 km
1000 à 3000 ft
1500m à 5 km
500 à 1000 ft
800 à 1500m
200 à 500 ft
< 800m
< 200 ft
Symboles :   Orages  Brouillard  Fortes neiges  Fortes précipitations  Vent > 20 kt
SIGMETs :   Divers  Orages  Givrage  Turbulence  Onde Orograph.  Cendres Volcan.






- Altitude de l'aérodrome : 156 ft
- Code IATA : MLN


GEML - Melilla

DERNIER METAR :
  • 290530Z 00000KT CAVOK 21/19 Q1015

METARs EXPIRÉS :
  • 290500Z 00000KT CAVOK 21/18 Q1015
  • 290430Z 00000KT CAVOK 21/18 Q1015
  • 290400Z 00000KT CAVOK 21/18 Q1015
  • 290330Z AUTO 00000KT CAVOK 20/18 Q1015
  • 290300Z AUTO 00000KT CAVOK 20/18 Q1015

TAF TAF GEML
Valide du 29 à 03h jusqu'au 30 à 03h UTC


290200Z 2903/3003 09006KT 9999 FEW015 TX26/2913Z TN20/2905Z
TEMPO 2918/3003 BKN010



MET'MAP, la Météo Aéronautique d'un coup d'oeil ! - Copyright ORBIFLY Décembre 2007 - Disclaimer

ORBIFLY MET'MAP TEAM :

Programmation & Développement : Alexandra Zaïnal
Sur une idée originale de : Baudouin d'Aumeries
Assistance à la programmation : Marc-Olivier Méhu
Soutien technique & logistique : Manuel Goepfert

Contact : metmap@orbifly.com




SOURCES & CREDITS :

   NOAA